Theta_e
328 325 326 320 306 304 299 299 303 301 302 305 306 306 307 306 305 303 311 311 313 320 324 329 331 334 335 337 338 340 341 342 343 342 342 342 342 342 344 343 344 344 345 346 346 346 347 348 347
323 320 322 314 304 299 299 302 301 304 305 306 305 305 305 305 307 308 309 308 314 317 321 324 327 328 329 331 333 335 336 335 336 337 338 339 340 340 340 340 339 340 342 344 344 345 346 348 347
318 318 317 310 304 298 300 302 304 303 305 305 304 304 305 305 306 309 307 307 314 315 318 319 322 323 324 326 328 329 329 330 331 332 333 333 335 334 333 333 335 335 338 340 342 343 344 344 344
317 314 309 303 299 301 301 304 304 303 302 303 305 303 303 306 307 307 306 305 310 312 314 316 319 320 320 322 323 323 322 323 324 325 326 330 325 323 324 327 328 329 330 332 334 336 338 339 341
316 313 304 301 299 301 302 304 305 303 304 304 304 303 302 304 306 305 304 303 304 307 311 312 315 316 317 318 318 318 318 318 318 318 321 319 317 316 317 318 320 322 324 325 329 331 331 332 336
310 309 301 299 299 301 302 304 305 305 304 302 302 302 303 305 303 303 303 302 303 303 305 307 310 311 313 313 314 314 314 314 314 313 313 313 312 312 312 314 316 317 318 319 325 325 324 325 328
308 307 301 300 299 299 302 304 303 304 303 303 304 302 302 301 303 302 302 302 302 301 302 303 303 305 308 308 309 310 310 310 310 309 308 307 308 307 308 309 311 313 314 315 318 316 317 318 318
310 308 299 299 299 299 302 303 302 303 303 302 305 303 302 303 302 302 301 301 300 300 300 301 302 301 303 304 304 305 306 306 306 305 305 303 303 304 303 304 306 309 310 311 313 312 312 312 312
308 303 300 299 298 301 301 301 301 300 301 301 303 302 301 305 301 300 299 299 299 298 299 300 300 301 301 300 300 301 302 302 302 302 302 302 302 302 302 301 303 305 306 307 309 309 309 308 308
306 302 300 303 302 302 302 302 303 300 300 300 300 301 298 301 299 298 298 297 297 297 298 299 299 299 299 297 300 301 300 301 301 301 302 301 301 300 300 301 300 301 301 304 306 306 306 306 306
303 301 302 302 302 302 302 300 303 301 300 304 303 304 299 300 299 299 299 299 298 298 297 297 298 299 299 299 300 301 300 300 300 300 301 300 300 300 299 300 300 301 300 301 302 303 303 304 304
301 301 302 303 303 301 301 301 300 301 305 304 306 304 300 299 298 299 299 298 297 296 296 297 297 298 298 299 299 299 299 299 299 299 299 298 298 298 297 297 298 299 299 299 299 300 301 302 303
301 301 302 303 302 302 299 300 301 300 305 304 300 299 299 299 300 300 299 298 297 295 296 296 297 297 297 297 298 298 298 298 297 297 297 296 296 296 296 296 296 297 297 296 296 297 298 300 301
301 301 302 302 302 301 299 301 298 303 302 302 298 299 300 300 300 299 297 296 295 296 295 296 296 297 296 297 297 297 297 296 296 296 296 294 295 294 294 294 294 295 295 295 295 295 295 297 299
300 299 302 301 300 300 300 298 298 305 297 299 297 299 299 299 300 298 297 296 295 295 296 295 295 296 296 296 296 296 295 295 295 295 295 294 293 292 292 293 293 293 293 293 294 294 294 294 295
298 297 297 299 299 298 299 296 303 305 298 300 300 299 297 298 298 299 298 296 296 295 294 295 294 295 295 295 295 295 295 295 295 294 294 292 291 291 291 291 291 292 292 292 292 292 291 292 293
298 296 296 297 299 297 298 298 301 300 297 299 302 300 297 297 297 298 297 296 295 295 294 294 295 294 294 294 294 294 293 294 294 293 293 292 290 290 290 290 290 291 290 290 290 290 290 290 291
296 295 296 295 297 295 296 296 300 302 297 299 302 302 299 296 297 297 296 295 294 294 294 294 294 294 294 294 293 293 293 293 293 292 291 290 290 289 289 289 289 289 289 289 289 289 290 290 290
297 295 295 299 295 294 295 295 297 301 300 300 300 302 300 297 299 298 296 294 292 293 292 293 293 293 293 293 291 291 291 291 290 291 290 289 288 288 288 288 288 288 287 287 288 288 287 288 288
295 295 296 298 293 292 294 292 296 298 299 300 301 302 302 298 297 296 294 292 291 291 292 292 292 292 292 292 291 291 290 290 290 290 289 288 287 287 286 286 286 287 286 287 287 287 286 286 288
294 294 296 293 292 291 289 291 292 295 296 297 299 300 301 298 296 294 292 291 291 290 291 291 291 292 292 291 290 288 288 288 287 288 288 288 287 286 286 285 286 286 286 285 285 286 285 283 285
293 296 294 291 290 289 290 286 294 295 294 295 300 300 298 297 296 295 292 290 290 291 292 291 291 290 290 290 289 288 287 287 288 287 287 286 286 285 285 285 285 285 285 285 285 284 285 284 282
294 291 291 289 289 286 290 285 291 288 290 295 299 301 299 298 296 294 291 290 290 291 291 291 290 289 289 289 289 288 287 287 287 285 284 285 285 285 284 284 284 284 284 284 284 284 284 284 282
290 290 289 286 287 283 290 287 290 290 292 295 298 299 297 296 296 295 293 291 290 291 290 290 289 288 288 288 288 287 286 285 284 283 283 283 283 283 283 283 283 283 283 283 283 283 283 282 282
290 291 288 287 284 285 286 284 288 293 294 296 299 300 296 296 294 292 290 289 289 289 289 289 288 287 287 287 287 286 285 284 282 282 282 281 281 282 282 282 281 282 282 282 282 282 281 282 281
289 292 289 283 284 286 282 282 290 294 297 297 294 295 293 293 293 291 290 290 289 288 289 288 288 287 286 286 285 284 283 282 282 281 280 280 280 280 281 280 280 280 280 280 280 280 281 281 280
288 287 292 289 278 281 288 292 293 292 292 292 292 293 294 294 293 291 290 290 288 288 288 288 288 287 285 284 284 282 282 280 280 280 279 279 279 279 279 279 278 279 279 279 279 279 279 279 280
288 291 285 287 282 281 286 288 289 291 291 292 291 292 295 294 293 291 289 289 289 289 289 289 288 286 285 284 283 281 280 279 279 278 278 278 278 278 277 277 277 277 278 278 278 278 278 278 279
284 286 285 285 286 283 282 286 291 291 293 292 294 296 297 296 294 292 290 289 289 289 288 288 287 286 283 282 281 279 278 278 277 277 277 277 277 276 276 276 276 276 276 276 276 276 276 275 276
290 290 289 285 284 284 285 286 294 294 294 294 295 294 295 295 295 294 291 289 288 287 287 286 286 283 282 281 279 278 277 276 276 276 276 276 275 275 275 275 274 274 274 275 274 274 274 273 273
Wind_Speed
5 2 1 4 5 4 4 5 1 7 6 3 3 6 9 3 2 1 6 5 3 4 5 9 11 10 12 13 13 14 14 15 14 14 13 14 13 13 15 14 15 12 11 11 11 11 11 11 8
6 3 2 1 5 5 4 6 9 8 5 9 7 4 4 3 2 7 7 4 4 5 5 8 10 10 11 12 12 14 14 13 12 12 12 13 14 15 14 13 12 13 13 12 11 12 12 11 10
3 1 3 2 2 4 1 8 7 6 12 6 5 2 1 2 4 8 6 6 6 6 6 9 9 11 12 13 14 15 15 15 14 14 13 11 10 14 14 14 14 15 14 14 14 14 14 14 12
4 4 3 5 4 1 2 8 7 12 6 4 2 4 3 2 5 5 10 8 8 7 7 9 10 12 13 13 14 15 15 15 15 14 14 16 15 14 14 14 15 15 14 13 13 13 15 15 13
2 3 4 3 3 2 3 5 11 14 8 7 6 3 2 4 7 11 10 8 9 8 7 9 11 11 12 13 14 14 15 16 16 15 14 16 15 15 14 14 13 14 15 15 15 13 13 15 15
3 3 5 5 4 3 3 7 10 12 5 5 5 3 2 7 12 10 9 9 8 9 7 7 10 12 13 13 13 13 14 14 15 15 15 14 14 15 15 15 15 14 14 15 13 14 15 16 15
3 3 2 2 2 3 4 8 11 12 9 7 1 5 4 12 12 12 10 9 8 8 7 6 8 9 13 12 13 13 13 13 13 13 13 12 13 13 14 13 14 13 13 14 13 14 14 13 14
1 3 3 4 3 3 6 9 2 12 10 3 4 7 5 14 16 13 11 10 9 8 7 7 6 7 7 8 11 12 12 12 12 13 12 11 10 11 12 13 15 15 15 15 15 15 16 15 13
1 4 4 3 6 2 7 9 5 1 4 5 8 4 3 15 18 14 12 11 9 7 7 7 7 7 7 7 6 8 10 10 10 8 10 7 6 8 9 11 13 13 13 13 15 15 16 16 10
4 3 3 1 3 3 6 9 7 6 8 8 8 9 5 19 18 18 17 14 14 12 9 7 7 6 6 5 5 6 5 6 7 7 7 6 7 8 8 7 11 12 14 11 13 13 14 12 9
1 4 1 3 5 4 5 6 5 7 11 13 15 14 15 21 20 19 18 16 15 12 8 8 7 6 6 5 3 2 3 3 4 7 7 6 5 6 5 5 6 7 9 7 9 8 7 10 9
4 4 3 1 4 5 5 4 6 14 17 2 8 6 19 23 22 22 20 17 15 14 12 10 9 7 6 4 4 4 3 3 3 4 6 4 4 6 6 5 7 7 7 9 8 6 9 10 10
5 3 4 4 4 6 3 9 9 15 17 9 3 9 18 20 22 20 17 16 16 15 13 11 9 8 7 6 4 4 3 3 4 4 5 5 5 5 5 5 5 6 6 7 8 8 9 9 9
1 4 6 5 6 5 7 5 3 4 4 12 11 14 16 21 22 19 20 19 17 15 14 12 11 9 8 6 5 4 3 3 3 3 4 5 5 4 5 5 6 6 7 8 8 9 9 9 10
1 7 7 10 5 5 5 9 13 16 7 10 14 15 17 19 19 25 22 21 19 16 16 15 13 11 9 8 6 4 4 3 3 2 2 2 3 5 6 6 7 7 8 10 8 9 9 9 10
3 3 5 5 8 2 5 15 12 5 10 15 15 14 16 21 23 21 20 20 19 17 16 15 11 11 9 6 5 4 3 3 2 1 1 2 4 6 6 6 6 6 7 8 8 9 10 10 10
5 10 9 5 10 4 11 15 3 5 9 15 16 16 16 18 21 22 21 20 20 19 17 15 13 12 10 8 6 5 5 3 1 1 2 3 5 5 5 5 6 7 7 7 7 8 9 11 11
11 8 8 11 5 9 10 21 22 18 14 24 23 19 18 18 25 23 22 21 18 18 16 16 13 14 12 8 6 4 4 3 2 3 2 4 3 5 5 6 7 7 7 7 8 10 9 10 12
7 8 16 15 4 6 17 20 25 23 20 25 24 21 18 21 18 19 20 19 18 18 18 17 16 14 10 8 6 4 4 4 3 4 5 5 4 5 6 6 7 6 7 8 9 9 11 9 10
9 13 20 13 2 7 14 22 23 23 26 25 26 24 18 17 16 18 20 21 21 20 19 18 17 15 12 8 5 3 3 3 3 4 5 4 5 5 6 7 8 7 6 8 8 9 8 8 6
11 17 15 11 5 7 11 18 8 7 14 17 23 22 15 16 17 17 20 23 21 21 21 19 17 16 13 10 6 4 2 3 5 6 3 3 5 6 6 8 8 8 6 7 8 9 9 8 8
14 10 11 8 5 13 3 23 13 11 11 12 21 11 12 15 14 16 20 22 23 21 19 18 17 15 12 12 8 9 7 7 3 2 4 5 6 7 8 9 8 8 7 8 8 7 8 9 10
5 3 5 3 8 6 12 13 9 2 6 18 19 12 13 13 15 17 19 19 21 18 18 17 16 15 13 13 11 8 9 5 3 3 7 6 7 9 8 9 9 9 8 9 10 10 10 9 10
8 3 2 2 4 12 18 17 3 5 8 9 11 10 9 11 13 12 13 16 17 18 18 17 19 17 15 15 14 13 10 8 6 6 5 6 6 6 9 10 10 10 9 10 10 11 12 12 13
5 4 7 8 7 15 3 9 17 12 11 13 17 7 6 8 10 12 16 17 18 21 20 17 20 19 17 16 14 12 10 9 8 7 6 7 7 7 10 11 10 9 10 11 12 12 14 14 14
11 8 7 14 15 23 8 14 13 11 15 16 7 7 3 7 8 11 15 16 18 19 21 22 21 20 17 16 14 12 11 7 7 7 6 7 8 9 10 9 10 11 12 12 12 11 12 14 14
9 10 2 5 3 11 12 23 8 7 12 8 14 11 15 12 11 12 14 16 17 20 22 23 22 19 18 16 13 12 10 10 8 8 8 8 10 8 10 10 11 12 13 14 14 12 15 15 16
5 6 5 4 7 19 26 32 18 11 15 9 10 15 15 10 10 11 13 16 17 18 20 21 21 20 18 16 13 11 11 9 7 7 10 10 9 9 10 11 11 12 13 14 14 13 15 17 14
7 7 5 3 6 10 21 18 4 6 6 11 14 15 9 12 15 14 14 15 16 16 18 20 20 21 18 15 13 12 10 8 7 7 7 7 9 9 10 10 11 12 13 14 14 15 17 18 19
9 16 19 11 11 12 13 38 4 7 5 7 8 5 8 9 11 13 14 14 16 17 18 20 19 19 18 15 13 11 9 8 7 6 6 7 9 9 10 10 12 12 14 14 15 17 17 19 20
Wind_Direction
126 149 282 235 233 237 155 173 202 167 179 113 124 206 210 3 206 357 111 60 65 53 25 52 46 45 54 61 57 62 60 60 56 52 47 42 37 31 30 27 24 15 357 345 340 336 335 346 342
141 155 221 255 253 236 144 157 196 173 114 126 131 136 182 175 120 130 153 102 103 70 56 58 50 61 61 61 61 64 65 63 58 53 46 46 44 42 38 30 22 17 9 359 344 335 334 337 337
127 262 247 244 255 274 249 183 177 146 144 157 145 274 149 136 142 135 103 114 123 93 73 62 56 60 59 60 63 64 59 59 59 57 53 51 47 45 32 31 28 25 16 12 6 360 353 345 338
182 168 161 250 252 224 294 176 159 145 181 216 206 191 188 29 146 134 131 126 118 93 79 72 67 66 65 64 63 60 57 56 56 53 50 55 46 38 31 27 25 21 13 7 358 356 357 356 345
200 222 222 236 226 254 213 191 175 173 168 174 186 171 209 153 121 134 137 131 117 104 82 77 70 69 69 67 66 67 62 58 55 53 51 49 41 37 33 24 20 18 11 5 2 356 353 354 352
197 274 234 246 209 226 209 183 185 199 178 139 203 191 139 130 153 147 145 125 119 109 104 96 73 71 68 67 67 68 67 64 60 55 51 47 43 35 29 21 18 11 8 2 6 5 358 357 353
261 230 287 286 274 234 201 163 202 204 210 210 14 226 99 170 159 155 148 138 129 126 126 115 96 91 79 72 70 72 72 70 68 61 55 51 48 40 32 27 18 13 7 358 5 357 353 353 348
224 244 192 201 214 241 158 173 209 204 213 76 198 230 199 185 163 155 155 153 148 142 133 121 119 104 97 89 77 81 80 76 68 58 51 43 43 33 28 18 16 11 8 360 355 351 347 343 338
239 229 231 216 192 150 157 200 157 134 189 209 198 237 75 156 161 164 165 168 164 155 149 140 133 132 122 112 100 94 79 72 64 54 43 44 30 23 16 19 6 6 3 358 356 351 343 337 327
238 259 237 190 187 222 189 219 182 199 196 221 221 208 162 163 175 180 185 184 183 171 162 153 147 137 132 117 105 87 77 62 55 46 39 29 25 19 2 5 355 357 358 352 353 349 339 337 336
177 266 163 219 226 216 209 220 193 229 230 231 217 204 180 181 188 194 198 194 187 176 166 166 158 148 143 128 122 101 82 75 61 48 35 30 24 13 9 356 357 354 357 350 346 344 346 335 330
241 240 230 204 187 183 213 142 215 225 246 354 256 209 180 188 195 199 199 193 182 180 174 171 169 159 144 148 139 131 112 94 78 61 40 25 21 12 8 3 351 347 349 342 341 336 331 328 322
231 211 220 246 225 230 169 233 250 243 244 224 220 190 193 198 201 202 199 194 188 185 177 176 174 169 158 163 154 132 119 94 76 61 47 21 19 9 353 346 341 342 341 340 333 334 330 324 318
167 261 261 262 243 232 233 237 225 238 229 218 215 214 208 208 203 196 198 194 193 187 183 175 180 178 171 167 155 137 121 106 82 66 43 29 4 351 342 341 338 339 344 338 328 330 327 322 319
326 289 273 223 219 236 212 251 232 248 187 215 219 223 217 216 205 208 200 196 189 188 182 184 181 179 179 167 151 149 133 125 103 72 60 9 346 341 341 338 337 342 334 325 326 329 324 321 320
242 250 257 150 173 165 215 273 244 249 218 237 230 223 217 216 212 212 203 201 195 190 188 182 181 181 176 167 163 165 156 139 141 129 247 308 343 343 338 331 325 335 322 327 330 332 329 323 317
212 273 233 271 204 142 213 273 247 204 233 254 246 231 222 219 214 213 205 203 195 190 186 185 185 184 179 177 182 183 175 180 162 227 273 333 327 321 318 316 320 327 321 321 326 326 324 317 315
265 245 250 261 180 214 224 256 275 265 241 258 264 252 238 220 216 209 204 202 194 191 189 186 185 188 185 181 183 185 183 199 224 229 241 251 285 302 308 318 319 315 312 317 329 320 320 310 313
269 260 262 269 198 240 252 255 266 276 271 257 264 259 243 230 224 209 202 196 192 192 190 192 189 190 186 190 190 203 208 197 233 223 251 253 302 315 317 314 308 305 307 320 318 314 313 317 320
234 261 264 281 233 218 271 270 270 264 263 266 270 265 251 237 226 208 198 197 196 192 194 195 195 190 195 192 186 185 180 212 249 250 254 266 310 312 314 307 300 303 300 304 309 316 312 312 330
228 235 255 263 322 229 289 269 237 257 255 269 260 259 254 227 219 203 203 201 197 196 194 195 196 195 195 187 169 161 191 249 239 231 235 266 289 301 288 276 273 288 300 296 303 302 305 297 299
240 229 244 259 288 277 1 288 280 257 249 255 272 245 229 217 213 203 202 202 200 197 193 195 193 192 191 185 189 202 214 226 218 288 286 298 300 291 278 281 290 289 284 281 282 282 286 287 283
247 119 179 205 249 313 248 268 275 133 246 259 258 264 226 210 198 201 202 203 200 193 191 192 190 190 186 189 198 202 218 240 269 267 272 280 286 272 279 278 279 272 265 272 278 278 274 270 273
133 119 154 157 252 250 253 229 257 196 209 251 263 244 199 196 193 201 196 197 197 194 192 188 190 191 188 189 196 204 209 213 227 239 250 253 266 280 268 264 264 268 273 276 279 280 275 275 273
199 180 279 255 226 264 150 237 265 278 234 232 252 261 176 178 183 187 189 193 193 196 195 190 192 193 189 191 194 197 203 212 234 243 245 267 269 262 260 265 283 289 292 295 292 288 282 276 273
185 221 203 265 280 288 110 250 274 225 248 251 278 272 219 216 209 204 197 195 196 195 198 194 193 193 188 189 190 190 195 205 219 233 244 253 258 264 279 289 288 291 292 290 286 284 280 279 276
158 198 237 285 113 282 250 259 228 187 247 244 252 247 246 235 215 208 207 202 198 197 199 197 191 193 190 187 184 187 189 201 213 227 242 252 258 275 286 291 289 289 289 287 286 279 280 280 277
227 137 142 194 264 261 276 282 275 231 240 212 239 236 243 230 217 211 208 208 205 204 200 200 194 187 184 183 186 187 189 198 210 226 241 255 274 284 283 285 291 292 289 287 284 283 281 279 276
166 206 228 312 233 260 273 272 114 160 168 200 223 230 238 226 220 213 212 213 212 204 200 194 192 185 179 180 179 184 188 193 210 231 250 267 280 278 281 290 293 290 288 285 280 277 278 277 279
254 233 216 223 221 235 259 273 87 78 152 187 211 247 240 237 225 210 208 207 205 207 200 196 190 185 176 175 177 184 184 195 212 234 256 267 275 281 288 295 292 289 287 288 287 290 286 284 283